Highspire, PA

4:09 PM EST on February 14, 2016 (GMT -0500)
Harrisburg International

Weather History for KMDT - September, 2012

Change the Weather History Date:

Sunday, September 16, 2012

  Actual Average Record
Temperature  
Mean Temperature 63 °F 66 °F  
Max Temperature 73 °F 76 °F 96 °F (1970)
Min Temperature 53 °F 56 °F 42 °F (1988)
Degree Days  
Heating Degree Days 2 2  
Month to date heating degree days 7 14  
Since 1 July heating degree days 7 16  
Cooling Degree Days 0 3  
Month to date cooling degree days 101 74  
Year to date cooling degree days 1203 970  
Growing Degree Days 14 (Base 50)    
Moisture  
Dew Point 50 °F    
Average Humidity 66    
Maximum Humidity 89    
Minimum Humidity 38    
Precipitation  
Precipitation 0.00 in 0.15 in 3.15 in (1999)
Month to date precipitation 0.86 2.06  
Year to date precipitation 30.19 29.00  
Sea Level Pressure  
Sea Level Pressure 30.12 in    
Wind  
Wind Speed 4 mph (NW)    
Max Wind Speed 13 mph    
Max Gust Speed 17 mph    
Visibility 10 miles    
Events      
T = Trace of Precipitation, MM = Missing Value Source: NWS Daily Summary

Daily Weather History Graph

Daily Weather History Graph

Search for Another Location

Airport or City:

Trip Planner

Search our weather history database for the weather conditions in past years. The results will help you decide how hot, cold, wet, or windy it might be!

Date:

Astronomy

Sep. 16, 2012 Rise Set
Actual Time 6:49 AM EDT 7:13 PM EDT
Civil Twilight 6:22 AM EDT 7:40 PM EDT
Nautical Twilight 5:50 AM EDT 8:12 PM EDT
Astronomical Twilight 5:17 AM EDT 8:45 PM EDT
Moon 7:26 AM EDT (9/16) 7:16 PM EDT (9/16)
Length of Visible Light 13h 18m
Length of Day
12h 24m
New Moon, 0% of the Moon is Illuminated
Sep 16
New Moon
Sep 22
First Quarter
Sep 29
Full
Oct 8
Last Quarter
Oct 15
New

Hourly Weather History & Observations

Time (EDT) Temp. Dew Point Humidity Pressure Visibility Wind Dir Wind Speed Gust Speed Precip Events Conditions
12:56 AM 57.0 °F 53.1 °F 87% 30.14 in 10.0 mi Calm Calm - N/A   Scattered Clouds
1:56 AM 57.9 °F 51.1 °F 78% 30.14 in 10.0 mi NNW 4.6 mph - N/A   Scattered Clouds
2:56 AM 57.0 °F 48.9 °F 74% 30.13 in 10.0 mi NNW 5.8 mph - N/A   Partly Cloudy
3:56 AM 55.9 °F 48.9 °F 77% 30.13 in 10.0 mi NNW 3.5 mph - N/A   Partly Cloudy
4:56 AM 55.0 °F 48.9 °F 80% 30.13 in 10.0 mi North 3.5 mph - N/A   Clear
5:56 AM 54.0 °F 48.9 °F 83% 30.14 in 10.0 mi North 4.6 mph - N/A   Clear
6:56 AM 54.0 °F 48.9 °F 83% 30.16 in 10.0 mi Calm Calm - N/A   Mostly Cloudy
7:56 AM 55.4 °F 51.8 °F 88% 30.16 in 10.0 mi Calm Calm - N/A   Mostly Cloudy
8:56 AM 60.8 °F 50.0 °F 68% 30.16 in 10.0 mi NW 9.2 mph - N/A   Mostly Cloudy
9:56 AM 64.0 °F 50.0 °F 60% 30.17 in 10.0 mi WNW 8.1 mph - N/A   Scattered Clouds
10:56 AM 68.0 °F 45.0 °F 43% 30.16 in 10.0 mi NW 9.2 mph - N/A   Scattered Clouds
11:56 AM 68.0 °F 43.0 °F 40% 30.14 in 10.0 mi NNW 6.9 mph - N/A   Mostly Cloudy
12:56 PM 69.1 °F 42.1 °F 38% 30.14 in 10.0 mi WNW 10.4 mph - N/A   Mostly Cloudy
1:56 PM 71.1 °F 46.0 °F 41% 30.12 in 10.0 mi WNW 10.4 mph - N/A   Mostly Cloudy
2:56 PM 72.0 °F 45.0 °F 38% 30.09 in 10.0 mi WSW 4.6 mph - N/A   Mostly Cloudy
3:56 PM 73.0 °F 46.9 °F 39% 30.08 in 10.0 mi West 6.9 mph - N/A   Mostly Cloudy
4:56 PM 71.1 °F 52.0 °F 51% 30.07 in 10.0 mi Calm Calm - N/A   Mostly Cloudy
5:56 PM 70.0 °F 55.9 °F 61% 30.06 in 10.0 mi Calm Calm - N/A   Mostly Cloudy
6:56 PM 66.9 °F 54.0 °F 63% 30.07 in 10.0 mi Calm Calm - N/A   Partly Cloudy
7:56 PM 63.0 °F 53.1 °F 70% 30.08 in 10.0 mi Calm Calm - N/A   Partly Cloudy
8:56 PM 61.0 °F 52.0 °F 72% 30.09 in 10.0 mi ESE 3.5 mph - N/A   Clear
9:56 PM 57.9 °F 51.1 °F 78% 30.10 in 10.0 mi Calm Calm - N/A   Clear
10:56 PM 55.0 °F 51.1 °F 86% 30.10 in 10.0 mi NNW 3.5 mph - N/A   Clear
11:56 PM 55.0 °F 52.0 °F 89% 30.10 in 10.0 mi Calm Calm - N/A   Clear